DECAYED

STARLINK-2127, 47403 (Decayed)

Orbit data source: Space-Track

STARLINK-2127, 47403 was a payload satellite owned by SpaceX/Seattle (US) in LEO that was launched on Wed, 20 Jan 2021 UTC via an FALCON 9 launch vehicle from the Air Force Eastern Test Range (AFETR). Payload-class satellites include a variety of spacecraft equipped with specific instruments for various scientific and technological missions. These include communications satellites like Starlink; space stations such as the ISS; scientific satellites like the Hubble; Earth observation satellites from companies like Planet Labs, Umbra, and HawkEye 360; GPS; miniature CubeSats for education and research; and military/defense satellites.

Not visible in the next 10 days
Identifier
47403, 2021-005BG
Orbit
Decayed
Country
Flag of USUS
Related business
Manufacturer
SpaceX/Seattle
Mission
Decayed Commercial Communications
Bus & Motor
STARLINK, Unknown motor
Mass
260 kg wet, ~248 kg dry
Launch date (UTC)
2021-01-20 (5 years ago)
Launch vehicle
FALCON 9
Launch site
Air Force Eastern Test Range (AFETR)
Object type
Payload
Rocket body
Debris
Shape & HBR
Box + 1 Pan, 10.1 m
Radar Cross Section
13.562 m², Large (>1 m²)

Expand to show TLE details & history
Last TLE update: 1 year ago

TLE from 1 year ago
0 STARLINK-2127
1 47403U 21005BG  25074.15123093  .08400744  12372-4  85139-3 0  9993
2 47403  53.0277 172.5831 0005312 357.0099  70.8852 16.37170197230349
Epoch: 2025-03-15T03:37Z
TLE epoch observation values (Epoch: 2025-03-15T03:37:46.352Z)
Latitude
47.92701°
Longitude
1.14876°
Altitude
177.495 km
Speed
7.807 km/s
True Right ascension
15h 14m 22s
True Declination
47° 44' 27"
Sunlit
Object was in full shadow at epoch
Visualization orbit readout
Latitude
Unknown
Longitude
Unknown
Altitude
Unknown
Speed
Unknown
Apparent Right ascension
Unknown
Apparent Declination
Unknown
Sunlit
N/A
Visualization observer readout
Local Sidereal Time
21:24:14
Azimuth
Unknown
Elevation
Unknown
Doppler factor
Unknown
Orbital elements
Apogee altitude
177.112 km
Perigee altitude
170.151 km
Semi-major axis
6,551.768 km
Eccentricity
0.00053
Inclination
53.0277°
RAAN
172.5831°
Arg. of periapsis
357.0099°
True anomaly
70.94273°
Mean anomaly
70.8852°
Eccentric anomaly
70.91396°
Mean motion
4.09266 °/min
Orbital period
87.96 mins
BSTAR
0.00085139
Loading maneuver chart data...
Computing Atmospheric mass density...
Loading historical data...
Loading historical data...
Loading historical data...
Loading historical data...
Loading historical data...
Loading historical data...
Loading historical data...

Documentation

Showing up to 5 results
|